Location: NJAA Observatory
(40.6819°N, 74.8979°W)
Time: 06:20:50
(UTC-04:00)

Landsat 5 - Visible Passes

Search period start: 02 August 2015 00:00
Search period end: 12 August 2015 00:00
Orbit: 533 x 660 km, 98.0° (Epoch: 01 August)

Date Brightness Start Highest point End Pass type
(mag) Time Alt. Az. Time Alt. Az. Time Alt. Az.
02 Aug 4.8 00:12:09 41° NNW 00:12:09 41° NNW 00:15:11 10° NNW visible
02 Aug 5.8 22:45:39 15° ENE 22:45:39 15° ENE 22:48:04 10° NNE visible
03 Aug 5.1 00:22:20 35° NW 00:22:20 35° NW 00:25:10 10° NNW visible
03 Aug 5.6 22:55:50 18° ENE 22:55:50 18° ENE 22:58:34 10° NNE visible
04 Aug 5.3 00:32:31 29° NW 00:32:31 29° NW 00:35:05 10° NNW visible
04 Aug 5.4 23:06:01 22° NE 23:06:01 22° NE 23:08:55 10° NNE visible
05 Aug 5.6 00:42:42 24° NW 00:42:42 24° NW 00:44:57 10° NNW visible
05 Aug 5.2 23:16:13 26° NE 23:16:13 26° NE 23:19:11 10° N visible
06 Aug 5.9 00:52:53 20° NW 00:52:53 20° NW 00:54:44 10° NW visible
06 Aug 5.1 23:26:24 30° NE 23:26:24 30° NE 23:29:23 10° N visible
07 Aug 6.1 01:03:05 16° WNW 01:03:05 16° WNW 01:04:27 10° NW visible
07 Aug 5.0 23:36:35 34° NNE 23:36:35 34° NNE 23:39:32 10° N visible
08 Aug 6.3 01:13:16 13° WNW 01:13:16 13° WNW 01:14:03 10° NW visible
08 Aug 5.0 23:46:47 36° NNE 23:46:47 36° NNE 23:49:38 10° N visible
09 Aug 5.1 23:56:58 35° N 23:56:58 35° N 23:59:42 10° N visible
10 Aug 6.2 22:30:29 10° ENE 22:30:29 10° ENE 22:30:36 10° NE visible
11 Aug 5.3 00:07:10 33° NNW 00:07:10 33° NNW 00:09:42 10° NNW visible
11 Aug 6.0 22:40:41 13° NE 22:40:41 13° NE 22:42:07 10° NE visible
